Dewpoint
4 5 7 6 8 7 8 4 -1 -1 6 10 10 12 14 14 14 15 14 13 13 11 9 10 10 10 10 11 11 11 11 11 11 11 11 11 11 12 12 13 12 11 11 11 11 11 10 10 10
-5 6 7 9 10 9 6 4 -1 0 8 10 12 13 14 14 14 14 14 13 13 10 10 10 10 11 11 11 11 11 12 11 11 12 11 11 11 11 11 10 11 10 11 11 11 11 11 11 11
-6 7 7 10 10 9 7 2 6 6 8 9 12 14 14 14 13 13 13 13 14 12 11 11 11 12 11 12 12 11 12 12 11 10 9 7 4 3 3 2 0 -0 2 4 7 8 11 12 12
-1 8 7 9 10 7 9 6 7 6 7 8 12 14 14 14 14 13 13 13 13 13 13 13 12 12 13 13 13 12 11 8 2 1 -1 -4 -5 -7 -8 -10 -10 -11 -11 -10 -8 -4 -1 7 10
6 7 10 10 9 7 9 6 5 7 7 9 11 13 14 14 13 13 13 13 13 14 13 13 13 13 13 12 12 10 6 0 -2 -5 -7 -10 -12 -14 -14 -15 -14 -14 -14 -14 -13 -13 -12 -11 -7
7 7 9 10 8 6 7 5 6 6 7 10 13 13 14 14 13 13 13 13 13 13 14 13 13 13 12 11 8 4 0 -2 -6 -10 -12 -14 -15 -15 -14 -13 -12 -11 -10 -10 -10 -10 -10 -10 -10
7 7 8 8 7 6 8 4 5 7 8 10 12 14 14 15 13 13 13 13 13 13 13 14 13 12 11 10 6 0 -4 -8 -11 -13 -15 -15 -15 -14 -13 -12 -12 -12 -14 -14 -14 -12 -10 -9 -8
6 6 6 6 7 8 6 -1 3 8 9 11 12 14 14 14 13 13 13 13 13 12 12 13 12 11 10 8 2 -5 -9 -11 -12 -14 -14 -14 -13 -13 -11 -14 -16 -17 -18 -18 -18 -16 -17 -14 -13
4 7 7 6 6 7 4 5 6 9 9 10 12 13 13 14 14 13 13 13 13 12 11 10 10 8 8 6 -2 -8 -10 -12 -14 -14 -14 -13 -12 -13 -13 -16 -17 -17 -17 -16 -15 -12 -10 -9 -6
7 8 7 3 4 7 5 3 5 8 9 13 14 14 14 14 14 13 14 14 13 13 12 11 11 11 9 4 -7 -8 -10 -12 -13 -13 -12 -11 -13 -15 -16 -15 -15 -16 -17 -17 -14 -10 -7 -4 -2
6 7 5 3 2 4 5 4 4 8 8 10 14 15 14 14 14 13 13 13 13 13 12 11 11 10 7 -3 -6 -8 -10 -11 -11 -10 -10 -13 -15 -15 -13 -14 -15 -16 -17 -18 -15 -11 -7 -4 -1
6 5 4 4 -0 2 5 4 2 3 4 6 9 14 14 14 14 13 13 14 13 13 12 11 11 9 3 -5 -6 -9 -10 -10 -9 -9 -11 -14 -13 -12 -14 -15 -15 -15 -17 -18 -14 -8 -4 -2 -0
5 4 3 3 -0 1 4 3 2 4 6 7 10 13 14 15 14 14 13 13 13 12 12 12 10 7 -1 -5 -7 -9 -9 -9 -8 -10 -13 -13 -12 -14 -14 -15 -15 -14 -15 -18 -14 -7 -4 -2 -0
4 3 1 -1 -1 2 5 3 1 3 9 10 11 12 13 14 13 13 13 13 13 12 12 11 9 5 -1 -5 -8 -8 -9 -7 -8 -11 -13 -12 -12 -11 -10 -11 -13 -13 -13 -17 -17 -12 -10 -3 -1
1 2 -0 -1 -1 2 -0 1 1 3 6 12 12 12 13 13 13 13 13 13 13 12 11 10 8 5 -1 -5 -7 -8 -7 -7 -8 -11 -12 -11 -9 -8 -7 -7 -11 -12 -10 -12 -17 -16 -14 -9 -2
3 0 2 -0 -1 -1 0 3 1 7 7 10 12 13 13 13 13 13 13 13 13 11 9 8 7 5 -2 -5 -6 -7 -7 -7 -8 -11 -11 -8 -8 -8 -7 -6 -9 -10 -10 -10 -12 -17 -19 -14 -4
1 3 3 1 -1 -1 1 3 -0 7 7 8 10 12 13 13 13 12 13 13 11 10 8 7 6 3 -2 -4 -5 -7 -7 -6 -7 -10 -10 -8 -7 -7 -7 -5 -8 -9 -9 -8 -9 -12 -16 -19 -12
2 2 2 2 -1 -0 2 1 -1 5 7 9 10 11 12 12 12 12 11 10 10 9 9 7 6 3 -2 -4 -5 -6 -6 -6 -6 -8 -10 -7 -6 -6 -6 -4 -7 -8 -8 -8 -7 -9 -10 -15 -15
-3 -2 1 0 -3 1 2 -0 -2 -2 3 8 10 12 12 12 12 11 10 9 9 8 7 4 1 -1 -3 -4 -4 -5 -6 -5 -5 -6 -10 -8 -7 -6 -4 -6 -7 -7 -7 -7 -6 -6 -8 -10 -15
-2 -1 0 -2 -3 -0 1 1 -2 -3 -3 4 8 9 9 10 9 9 7 3 1 2 1 -1 -3 -3 -3 -3 -4 -4 -4 -4 -4 -5 -10 -9 -6 -6 -4 -8 -7 -6 -6 -6 -5 -4 -6 -8 -9
-3 -0 -0 -0 -4 -4 -2 -1 -2 -4 -4 -5 -3 4 7 7 3 1 -1 -3 -4 -5 -5 -5 -4 -2 -1 -1 -3 -3 -3 -3 -3 -4 -7 -7 -5 -4 -9 -7 -7 -7 -6 -6 -5 -4 -3 -5 -6
-1 -3 -2 -1 -2 3 -3 2 -3 -5 -4 -5 -6 -5 -2 -2 -3 -3 -3 -4 -5 -5 -5 -4 -3 -1 0 -1 -2 -3 -3 -3 -3 -6 -7 -3 -3 -8 -7 -7 -7 -6 -5 -5 -6 -3 -3 -3 -4
-3 -1 -3 -3 -2 -3 -4 4 -1 -4 -4 -4 -6 -6 -4 -3 -3 -3 -5 -5 -5 -5 -5 -4 -3 -2 -1 -1 -3 -3 -2 -3 -5 -4 -2 -7 -8 -6 -5 -4 -4 -4 -4 -4 -5 -3 -2 -2 -3
-3 -3 -4 0 1 2 -2 4 3 -4 -5 -4 -5 -2 -2 -2 -1 -2 -4 -5 -5 -6 -5 -5 -3 -2 -3 -3 -2 -2 -4 -4 -2 -5 -9 -5 -3 -3 -3 -3 -3 -3 -3 -3 -3 -4 -3 -1 -1
-2 1 3 0 1 2 -1 -2 3 -3 -2 -4 -2 -1 -1 -1 -1 -2 -3 -3 -4 -4 -4 -4 -4 -3 -2 -3 -4 -3 -2 -5 -8 -5 -4 -4 -4 -4 -4 -3 -3 -3 -3 -3 -3 -3 -3 -2 0
-1 -0 5 1 5 3 -3 -4 1 -3 -2 -2 -3 -2 -2 -1 -1 0 1 1 -1 -2 -4 -4 -4 -4 -3 -2 -2 -5 -8 -5 -4 -4 -5 -7 -8 -8 -8 -8 -7 -6 -4 -4 -3 -3 -3 -2 -2
-4 -1 -3 2 2 2 1 -1 -1 -3 -2 -1 -1 -1 -1 -1 1 1 1 1 -1 -3 -3 -3 -3 -4 -5 -8 -9 -6 -5 -4 -5 -7 -7 -7 -8 -8 -9 -9 -8 -7 -6 -5 -4 -3 -3 -2 -2
-2 -4 3 3 2 2 1 -4 1 1 -1 -1 -0 -0 -1 0 1 1 1 -1 -1 -2 -4 -6 -8 -9 -9 -7 -6 -4 -4 -6 -6 -7 -8 -10 -12 -12 -12 -11 -10 -9 -8 -7 -5 -4 -4 -2 -2
0 -1 -3 -2 1 2 -1 3 3 -2 0 -1 -1 -1 -0 1 1 1 0 -2 -4 -7 -8 -9 -8 -7 -7 -6 -5 -5 -5 -6 -7 -10 -12 -12 -10 -8 -8 -7 -7 -7 -7 -7 -7 -7 -6 -4 -3
-3 -2 -3 1 -0 -1 -2 -3 -5 -2 -2 -3 -2 -1 -0 0 -0 -0 -1 -2 -4 -6 -7 -7 -7 -7 -6 -5 -4 -4 -6 -8 -11 -12 -10 -9 -8 -6 -6 -5 -5 -5 -5 -5 -5 -5 -5 -5 -5
Wind_Speed
19 5 3 4 2 4 3 5 4 2 5 13 12 20 14 13 4 7 18 10 12 12 14 12 10 9 8 7 7 7 7 7 7 6 6 7 8 8 8 7 8 9 9 8 9 9 9 10 10
16 10 5 3 4 3 4 5 2 1 13 18 20 14 13 7 13 20 17 11 8 14 14 12 10 8 7 6 6 5 6 6 6 6 6 5 6 7 8 9 9 10 10 9 10 10 11 12 11
18 16 7 4 4 5 5 4 7 7 15 12 7 17 9 11 14 14 13 12 12 11 13 11 9 7 6 5 5 4 4 4 5 5 6 7 7 8 9 9 10 10 11 11 11 12 12 12 13
18 9 3 3 6 8 5 4 5 9 11 10 19 9 10 11 14 21 18 14 9 12 10 9 8 7 7 5 4 3 4 5 6 6 7 8 9 9 10 10 11 11 12 12 12 12 13 14 15
20 6 3 4 7 5 6 10 19 5 8 14 10 6 7 19 21 23 20 16 15 11 9 8 8 7 4 3 2 3 5 5 6 7 8 8 9 10 11 11 12 13 13 14 15 15 15 16 16
7 5 4 5 5 7 5 21 18 9 12 12 12 10 7 22 23 21 21 18 13 11 9 10 8 6 3 2 2 3 5 6 7 8 8 9 10 10 11 12 13 14 15 16 16 17 17 18 18
3 3 5 7 6 6 7 19 9 11 13 8 23 5 13 22 22 22 20 17 14 11 9 11 7 5 2 1 2 4 5 6 7 8 9 10 11 12 13 13 14 15 14 15 15 16 16 16 17
6 1 5 9 8 3 9 11 8 26 6 17 14 8 11 25 24 21 21 18 16 12 9 12 8 5 3 0 3 5 6 7 8 9 9 10 12 14 14 16 15 14 14 13 14 14 14 14 14
14 1 5 6 13 5 3 4 7 9 16 10 5 18 26 31 26 23 24 22 17 14 10 9 7 5 1 2 4 5 7 8 9 9 10 11 12 14 14 15 15 15 16 16 15 16 15 14 13
7 4 4 4 7 6 7 3 10 6 14 9 15 18 39 35 31 27 26 24 20 17 12 9 6 3 3 4 5 6 8 9 10 11 11 12 12 14 14 15 16 17 17 17 18 17 16 15 15
7 5 9 11 21 18 19 4 5 17 2 10 21 32 39 36 33 28 23 21 20 16 14 10 7 5 4 4 6 7 8 9 10 11 11 11 12 13 13 14 15 16 16 16 16 16 15 14 15
3 12 14 8 14 18 16 15 8 6 2 10 19 30 36 36 33 30 26 21 19 16 13 11 8 6 5 5 6 8 8 10 10 11 11 11 10 12 14 15 16 17 17 17 17 16 15 15 13
8 7 20 23 18 24 25 11 7 13 4 13 22 26 31 33 32 27 19 15 16 15 14 11 9 7 6 6 6 7 8 8 11 11 10 10 12 13 15 16 17 17 17 17 17 16 17 16 14
12 15 14 8 14 8 18 8 10 6 14 25 23 22 26 31 28 24 22 21 18 16 13 11 9 8 7 6 7 7 9 10 12 10 9 11 12 14 16 19 20 19 18 18 17 17 18 18 15
17 6 8 5 6 2 29 7 8 20 20 26 22 20 23 25 26 25 22 19 18 16 13 11 10 9 8 7 8 8 8 9 10 9 10 10 10 14 18 21 21 20 18 18 17 17 18 18 15
5 6 4 4 3 3 5 3 5 23 22 23 23 22 20 23 24 21 18 20 16 14 13 12 11 9 9 9 9 8 8 11 10 10 9 8 11 15 18 21 22 20 19 19 19 19 19 20 18
6 5 4 1 2 2 5 5 6 21 24 24 24 25 21 21 19 19 21 19 16 13 13 12 10 10 10 10 9 9 9 11 10 10 9 8 11 15 19 21 21 20 19 19 20 20 21 22 20
5 6 4 6 4 3 4 1 7 21 25 24 22 21 22 23 22 19 18 15 15 15 14 13 12 11 12 12 11 10 10 10 10 10 10 10 13 16 19 21 20 20 19 18 18 20 20 22 22
3 4 3 2 1 3 4 7 7 13 15 21 22 21 21 22 21 18 17 15 15 15 16 14 13 13 14 12 10 12 11 9 10 11 11 11 14 16 19 21 19 19 18 17 18 20 20 22 23
5 6 2 4 2 3 5 3 4 3 5 15 23 24 22 21 20 21 19 16 16 18 18 17 16 16 14 12 12 12 10 11 12 12 11 12 13 17 19 19 18 18 17 16 16 18 19 20 21
6 6 5 8 4 2 7 3 4 2 2 9 10 15 23 25 25 21 17 15 17 19 19 18 18 16 15 13 12 11 11 11 12 11 10 12 15 17 18 17 16 16 16 16 16 16 17 18 17
2 2 4 12 5 5 3 4 4 5 4 2 8 10 16 20 18 16 13 13 14 16 17 18 16 17 16 14 12 10 10 11 11 11 12 13 15 15 15 14 15 15 15 15 15 16 16 16 16
3 2 4 4 5 5 3 4 5 6 5 7 9 10 13 13 13 12 11 10 10 11 11 13 14 15 15 11 9 9 10 10 10 11 13 14 13 13 14 15 15 15 15 16 16 16 15 16 15
3 4 8 5 4 2 3 4 4 5 5 4 5 14 14 11 10 8 9 8 6 7 8 9 10 9 8 7 7 8 8 8 10 11 11 11 12 14 15 17 17 17 17 17 17 17 17 16 16
8 7 3 3 3 4 3 4 6 3 2 8 14 20 16 12 11 9 7 7 5 5 5 6 6 6 6 5 5 6 8 9 9 10 12 14 15 16 16 17 18 19 19 19 18 18 18 18 19
5 4 4 5 4 3 2 3 4 3 6 12 18 18 13 11 9 7 6 5 5 5 6 6 6 5 3 4 5 6 6 7 10 12 13 15 18 19 19 20 20 20 20 20 20 19 19 18 19
2 2 2 5 3 4 2 2 3 3 3 5 11 14 13 10 9 8 8 7 7 7 7 6 5 4 5 4 4 6 7 10 11 13 16 18 19 20 20 21 22 21 21 20 20 21 20 20 20
2 3 2 3 3 1 5 1 3 4 4 3 2 6 7 9 10 9 9 9 8 7 6 7 6 4 4 5 6 8 10 11 14 17 19 20 20 20 21 21 21 20 20 20 20 20 20 22 22
4 3 3 4 3 3 2 4 3 3 4 8 11 10 9 10 9 8 8 8 7 8 7 7 6 6 6 7 9 11 13 16 18 18 18 17 18 19 19 20 20 20 19 19 19 19 20 22 23
1 1 3 4 2 2 3 4 5 5 8 4 2 3 4 6 5 7 7 8 9 9 9 9 8 8 9 11 13 14 16 17 17 16 17 19 20 20 20 20 21 21 20 19 19 20 19 21 22
Wind_Direction
206 146 122 93 83 83 241 255 200 139 67 75 82 94 101 60 48 130 150 175 185 164 159 153 141 129 115 101 90 83 75 65 56 47 38 31 23 15 10 7 358 355 353 351 343 339 334 331 333
200 177 126 135 117 145 242 223 191 166 121 99 86 93 54 63 97 125 147 163 150 158 156 147 140 131 117 103 88 74 60 47 40 30 26 21 4 348 344 343 341 339 336 334 330 327 326 323 321
189 176 154 143 176 188 209 161 158 131 113 104 98 85 89 119 111 130 150 153 148 145 149 144 140 129 115 103 88 67 46 39 9 2 357 351 347 340 335 332 330 328 324 320 316 312 308 307 310
176 172 221 159 206 243 214 7 183 118 105 99 114 72 90 174 130 147 153 152 141 130 139 140 136 129 121 106 77 53 7 359 357 1 0 355 350 343 337 332 331 328 324 318 313 308 303 299 297
165 154 195 202 216 235 231 251 276 118 118 124 107 113 89 122 143 153 150 150 152 151 164 159 148 139 127 108 69 8 353 357 1 357 353 349 343 337 333 332 332 328 324 319 316 311 307 302 297
170 194 174 189 211 238 246 233 175 139 138 114 103 99 120 137 153 159 163 164 165 171 177 165 151 145 131 98 37 5 355 353 351 349 347 343 339 335 334 336 332 325 321 317 314 309 304 301 297
212 131 192 155 194 242 208 216 177 138 137 128 139 91 142 152 163 165 165 163 167 164 176 162 158 150 143 65 6 356 350 345 345 345 345 343 340 336 337 335 335 328 328 326 320 314 310 307 301
236 47 171 181 197 235 197 195 179 138 149 122 152 153 169 161 170 163 162 165 167 170 183 169 168 167 166 27 349 349 345 342 343 347 346 341 338 337 338 345 336 337 336 330 324 319 317 313 308
225 337 213 195 195 183 90 151 72 125 125 105 123 158 167 166 165 170 172 175 177 176 175 162 177 192 174 310 330 340 341 341 342 349 345 341 339 337 344 336 340 341 338 333 332 330 327 323 321
198 171 242 238 221 172 259 94 120 106 100 77 112 136 162 166 170 174 172 171 178 187 179 178 184 224 281 309 311 335 349 338 343 343 344 339 339 346 340 342 343 341 337 336 334 332 329 323 320
207 197 245 268 241 208 192 196 112 136 92 168 158 155 166 171 179 180 185 194 188 189 186 188 196 220 253 273 306 332 338 335 341 339 339 341 353 345 345 344 341 340 339 337 334 328 323 320 319
252 226 232 257 313 238 186 203 172 120 95 196 185 168 170 176 179 185 185 185 189 190 191 196 203 224 250 278 302 320 334 335 338 336 347 356 345 351 351 349 348 347 345 341 337 334 330 325 321
244 185 248 268 277 227 171 154 117 184 110 174 169 176 178 176 177 181 185 194 203 197 198 203 211 226 250 274 302 314 324 328 337 349 350 348 356 1 1 358 353 351 347 343 342 342 342 337 329
202 221 262 269 279 198 147 170 142 146 149 162 167 179 181 177 180 181 188 200 205 204 203 209 219 232 251 275 295 316 318 338 337 340 342 355 3 4 3 1 357 353 349 346 342 343 345 341 331
218 191 254 252 281 124 127 113 156 162 165 166 174 178 176 178 177 184 193 206 213 216 211 215 226 238 255 271 287 302 315 325 329 335 348 353 357 0 1 358 355 351 348 344 343 342 342 342 330
208 126 140 268 280 5 102 178 146 155 166 167 176 179 168 170 177 186 197 202 216 212 215 222 232 243 255 265 278 298 306 314 329 335 336 335 350 353 352 355 353 349 346 343 344 346 344 345 338
244 169 130 102 340 34 70 154 196 164 165 168 175 175 169 169 176 189 196 210 219 224 226 230 239 249 256 267 275 282 293 309 325 323 319 321 335 342 348 349 349 347 346 345 344 348 348 345 344
186 140 145 153 215 109 103 197 170 171 169 168 169 171 172 174 178 188 201 206 215 231 242 247 249 253 258 262 263 273 285 300 316 312 308 315 326 334 340 343 344 342 345 343 342 345 350 348 346
154 123 128 107 75 114 152 149 183 172 163 164 169 172 178 186 190 199 204 212 215 223 240 249 253 256 257 258 259 267 277 293 307 310 306 306 316 326 334 336 336 336 339 343 341 341 346 350 351
66 107 121 49 79 87 141 196 195 170 146 177 180 181 184 188 190 197 208 217 221 226 238 248 254 257 261 257 258 265 282 299 307 308 305 311 316 323 327 330 329 330 333 338 335 336 342 350 353
41 139 183 149 150 23 126 357 165 215 183 128 124 182 193 187 181 190 208 230 233 232 235 241 249 250 255 258 264 264 274 289 302 302 307 311 316 324 329 330 329 327 328 332 334 329 334 341 351
93 320 197 136 98 166 97 232 253 198 164 216 170 152 147 175 180 196 223 238 234 234 235 235 235 239 248 257 257 257 272 291 298 302 309 315 315 319 322 327 332 334 331 329 328 324 325 329 335
194 336 90 130 99 93 328 79 256 137 211 222 227 185 172 180 195 215 228 227 227 228 229 229 228 232 243 251 250 263 283 292 297 303 306 313 320 324 326 325 325 328 328 327 325 320 316 315 321
218 54 43 46 72 45 252 134 277 183 199 193 189 169 168 198 206 203 206 213 218 215 209 207 209 223 230 235 250 269 281 291 300 307 314 318 320 320 318 316 316 318 319 318 316 315 312 308 307
58 61 34 27 14 205 268 54 237 209 21 187 167 174 178 190 196 203 206 202 200 184 168 169 175 193 217 243 267 283 294 303 310 314 315 316 316 315 313 310 310 310 309 308 307 306 307 305 299
39 123 159 168 173 217 360 216 259 91 73 111 166 164 173 186 194 199 199 198 193 178 173 173 182 197 223 261 275 287 300 307 309 310 310 311 311 310 310 309 306 304 302 301 298 297 298 298 297
351 49 192 109 4 69 234 274 1 12 65 118 136 163 176 184 187 197 207 218 210 201 198 197 202 219 236 257 280 295 297 299 303 305 306 307 306 305 306 307 306 304 302 298 296 294 294 292 290
240 179 71 3 106 81 315 320 239 308 267 269 211 200 201 196 196 209 215 215 211 209 213 213 214 228 257 268 280 289 291 295 300 302 303 305 306 307 309 309 305 303 301 298 295 293 292 291 290
347 21 37 111 99 138 134 283 234 223 228 202 210 211 205 194 203 214 224 221 231 234 229 230 235 249 266 279 285 284 288 296 300 304 307 311 313 312 312 310 309 308 304 300 295 294 292 288 289
229 20 84 100 341 39 117 284 358 29 23 98 216 188 181 197 220 223 248 260 260 252 247 252 254 260 268 278 280 286 294 301 305 309 313 317 316 316 315 314 311 309 306 302 300 297 294 291 290
Height
1528 1532 1532 1534 1544 1544 1543 1529 1515 1514 1516 1518 1516 1517 1533 1536 1539 1552 1548 1551 1552 1554 1556 1558 1559 1560 1560 1561 1561 1562 1562 1561 1561 1560 1560 1559 1559 1558 1557 1556 1555 1554 1553 1553 1552 1551 1550 1549 1549
1526 1531 1532 1534 1547 1552 1542 1519 1517 1513 1515 1516 1521 1525 1530 1543 1541 1544 1548 1551 1553 1554 1556 1558 1559 1560 1560 1561 1562 1562 1562 1561 1561 1561 1560 1559 1558 1558 1557 1556 1554 1553 1552 1552 1551 1550 1549 1548 1548
1525 1528 1531 1534 1542 1545 1534 1513 1517 1514 1513 1515 1524 1529 1535 1543 1544 1546 1548 1551 1553 1555 1556 1558 1559 1560 1561 1562 1562 1562 1562 1561 1561 1560 1560 1559 1558 1557 1556 1554 1553 1552 1551 1550 1549 1548 1548 1547 1546
1523 1528 1530 1534 1535 1525 1521 1517 1513 1513 1515 1517 1523 1532 1538 1542 1544 1545 1549 1551 1553 1555 1556 1558 1559 1560 1561 1562 1562 1562 1562 1561 1560 1560 1559 1558 1557 1556 1555 1554 1552 1551 1550 1548 1547 1546 1545 1544 1543
1521 1523 1528 1532 1527 1519 1517 1515 1516 1513 1514 1519 1522 1535 1539 1543 1545 1548 1550 1552 1554 1555 1557 1558 1559 1560 1561 1562 1562 1562 1562 1561 1560 1559 1558 1557 1556 1555 1554 1552 1551 1550 1548 1547 1546 1544 1543 1542 1541
1519 1518 1527 1531 1524 1516 1515 1514 1514 1513 1515 1520 1525 1532 1542 1544 1546 1548 1550 1552 1554 1556 1557 1558 1559 1561 1562 1562 1561 1561 1561 1560 1559 1558 1557 1556 1555 1554 1552 1551 1550 1548 1546 1545 1543 1542 1540 1539 1537
1516 1516 1520 1521 1521 1517 1515 1512 1511 1513 1516 1521 1525 1535 1541 1543 1545 1547 1550 1552 1554 1555 1556 1557 1559 1560 1561 1561 1561 1561 1560 1560 1559 1557 1556 1555 1553 1552 1551 1550 1548 1546 1544 1542 1540 1538 1536 1535 1533
1514 1514 1514 1515 1517 1517 1511 1511 1511 1509 1517 1521 1525 1531 1538 1539 1543 1546 1549 1551 1552 1554 1555 1557 1558 1560 1561 1561 1561 1560 1560 1559 1558 1557 1556 1554 1552 1550 1549 1547 1546 1544 1542 1540 1537 1536 1533 1531 1530
1513 1518 1517 1513 1510 1510 1507 1511 1512 1513 1514 1519 1524 1526 1529 1537 1541 1545 1547 1549 1551 1554 1555 1556 1557 1559 1560 1560 1560 1560 1559 1558 1557 1556 1555 1553 1551 1549 1547 1546 1544 1542 1540 1537 1535 1533 1531 1529 1527
1511 1517 1513 1504 1504 1510 1504 1510 1509 1514 1515 1522 1524 1527 1530 1535 1539 1542 1545 1547 1550 1552 1553 1555 1556 1558 1558 1559 1559 1559 1558 1557 1557 1555 1554 1552 1550 1548 1547 1545 1543 1540 1538 1536 1533 1530 1528 1526 1524
1506 1513 1509 1504 1505 1510 1509 1508 1511 1514 1520 1521 1524 1527 1530 1533 1537 1541 1544 1547 1549 1551 1552 1555 1556 1557 1558 1558 1558 1558 1558 1557 1556 1554 1553 1552 1549 1549 1547 1544 1542 1539 1536 1534 1531 1528 1526 1523 1521
1509 1508 1507 1505 1504 1503 1505 1509 1511 1513 1518 1520 1525 1527 1527 1530 1534 1538 1542 1545 1548 1550 1552 1554 1555 1556 1557 1557 1558 1557 1557 1556 1555 1554 1552 1550 1550 1547 1545 1543 1540 1537 1535 1532 1529 1526 1524 1521 1519
1507 1506 1506 1506 1504 1500 1504 1507 1509 1512 1518 1518 1525 1529 1529 1530 1533 1538 1542 1545 1547 1549 1551 1553 1554 1555 1556 1557 1557 1556 1556 1555 1554 1552 1551 1550 1548 1546 1544 1541 1539 1536 1533 1530 1527 1524 1522 1519 1517
1503 1506 1506 1504 1501 1497 1500 1508 1507 1515 1519 1518 1524 1529 1530 1529 1532 1537 1540 1542 1545 1547 1550 1552 1553 1554 1555 1555 1556 1555 1554 1553 1552 1551 1550 1548 1547 1545 1543 1541 1538 1535 1532 1529 1526 1523 1520 1517 1514
1503 1511 1508 1502 1500 1500 1498 1512 1511 1512 1521 1522 1526 1530 1530 1529 1532 1535 1538 1541 1544 1546 1549 1550 1552 1553 1553 1554 1554 1554 1553 1552 1551 1550 1549 1547 1546 1545 1542 1540 1537 1534 1531 1528 1525 1522 1520 1517 1514
1506 1507 1514 1501 1500 1499 1499 1519 1511 1513 1520 1522 1528 1530 1528 1528 1531 1535 1537 1541 1543 1545 1547 1548 1550 1551 1552 1552 1552 1552 1552 1551 1550 1549 1548 1547 1545 1544 1542 1539 1536 1533 1529 1526 1524 1521 1518 1515 1512
1505 1515 1510 1506 1501 1499 1504 1517 1511 1515 1520 1524 1526 1527 1526 1528 1531 1535 1537 1540 1541 1543 1545 1547 1548 1549 1549 1550 1550 1550 1550 1549 1548 1547 1547 1546 1545 1543 1541 1538 1535 1532 1528 1525 1522 1520 1517 1513 1510
1507 1507 1505 1511 1506 1505 1510 1512 1511 1514 1518 1520 1522 1523 1525 1527 1530 1533 1536 1539 1541 1542 1543 1544 1545 1546 1546 1547 1547 1547 1548 1547 1546 1546 1545 1544 1543 1542 1539 1536 1534 1531 1527 1524 1521 1519 1516 1513 1509
1494 1501 1504 1504 1502 1506 1508 1516 1514 1512 1514 1516 1519 1521 1524 1527 1530 1533 1535 1537 1538 1540 1541 1541 1542 1543 1543 1544 1544 1545 1546 1545 1545 1544 1543 1543 1542 1540 1538 1535 1533 1530 1526 1523 1520 1518 1516 1513 1509
1495 1502 1507 1505 1502 1506 1513 1515 1512 1509 1511 1514 1516 1519 1522 1525 1528 1531 1533 1534 1536 1537 1538 1537 1538 1539 1540 1541 1542 1542 1543 1543 1542 1542 1541 1540 1540 1538 1536 1533 1531 1529 1526 1523 1520 1517 1515 1513 1510
1500 1503 1508 1508 1505 1507 1514 1522 1516 1512 1511 1514 1517 1518 1520 1522 1524 1528 1531 1532 1533 1533 1534 1535 1535 1536 1537 1538 1539 1540 1540 1540 1540 1539 1539 1538 1537 1535 1532 1530 1529 1527 1524 1522 1519 1517 1515 1512 1511
1503 1504 1501 1504 1515 1531 1512 1547 1519 1514 1513 1513 1516 1518 1519 1521 1524 1527 1528 1528 1529 1530 1531 1532 1532 1534 1535 1536 1537 1538 1538 1538 1537 1537 1536 1535 1534 1533 1531 1528 1526 1524 1522 1520 1518 1516 1514 1512 1510
1504 1502 1499 1504 1513 1526 1518 1539 1519 1516 1517 1515 1513 1516 1519 1521 1523 1524 1525 1526 1527 1528 1529 1529 1530 1532 1533 1534 1535 1535 1535 1535 1535 1535 1534 1533 1532 1530 1529 1527 1525 1522 1520 1518 1516 1515 1513 1511 1509
1500 1498 1503 1512 1521 1547 1522 1533 1526 1520 1511 1512 1512 1515 1517 1519 1521 1522 1523 1524 1526 1526 1527 1527 1528 1531 1532 1533 1533 1532 1532 1533 1533 1532 1531 1530 1529 1528 1526 1524 1522 1519 1517 1515 1514 1512 1511 1509 1507
1498 1511 1546 1547 1551 1544 1524 1536 1519 1507 1506 1505 1507 1512 1515 1518 1519 1521 1522 1524 1525 1526 1525 1526 1527 1529 1530 1531 1531 1531 1530 1530 1529 1529 1528 1527 1525 1524 1523 1520 1518 1516 1514 1512 1510 1508 1507 1506 1505
1508 1517 1534 1534 1542 1544 1524 1534 1520 1507 1507 1504 1509 1512 1515 1517 1519 1521 1522 1524 1525 1525 1525 1525 1525 1526 1528 1528 1528 1528 1528 1528 1527 1526 1525 1523 1522 1520 1518 1516 1514 1512 1509 1507 1506 1503 1501 1501 1500
1511 1527 1516 1530 1532 1539 1538 1515 1512 1510 1511 1512 1513 1514 1516 1518 1520 1521 1522 1523 1524 1524 1524 1524 1525 1526 1526 1527 1527 1527 1526 1526 1525 1523 1521 1519 1517 1515 1513 1511 1509 1507 1505 1503 1501 1498 1497 1496 1495
1514 1513 1522 1529 1526 1528 1536 1515 1536 1524 1515 1515 1516 1516 1517 1518 1519 1520 1522 1522 1523 1523 1524 1524 1524 1525 1526 1526 1526 1525 1524 1523 1521 1520 1518 1515 1513 1510 1508 1506 1504 1501 1499 1497 1494 1493 1491 1490 1489
1520 1517 1516 1520 1527 1537 1542 1537 1515 1517 1514 1514 1514 1514 1516 1518 1519 1521 1522 1522 1523 1523 1524 1524 1524 1524 1524 1524 1524 1523 1522 1520 1518 1516 1513 1510 1508 1506 1503 1501 1498 1496 1493 1491 1488 1486 1485 1484 1483
1518 1516 1518 1533 1526 1535 1539 1542 1516 1515 1514 1514 1515 1516 1518 1519 1519 1520 1520 1521 1522 1522 1521 1522 1522 1522 1521 1521 1521 1519 1517 1516 1513 1511 1509 1506 1504 1502 1499 1496 1494 1492 1489 1486 1483 1480 1479 1478 1476